Location: Asheville, NC
(35.6000°N, 82.5500°W)
Time: 20:22:46
(UTC-04:00)

Vanguard 3 - Pass Details

Date: 15 March 2018
Orbit: 508 x 3264 km, 33.3° (Epoch: 24 June)

Event Time Altitude Azimuth Distance (km) Brightness Sun altitude
Rises 07:12:42 0° 215° (SW) 6,665 11.4 -6.6°
Reaches altitude 10° 07:17:14 10° 209° (SSW) 5,885 11.2 -5.7°
Maximum altitude 07:34:42 43° 146° (SE) 4,053 11.1 -2.1°
Drops below altitude 10° 07:50:53 10° 82° (E) 5,522 13.4 1.2°
Sets 07:54:54 0° 77° (ENE) 6,244 13.5 2.0°
